EW6098 Weather Reports


time (UTC)temp
C
wind
direction
speed
KPH
gust
KPH
rain 1hr
cm
rain 24hr
cm
rain mn
cm
humidity
%
barometer
mb
20260508163523 15 31 1.6 9.7 0.00 0.00 0.00 52 1016.7
20260508162553 15 301 1.6 6.4 0.00 0.00 0.00 53 1016.7
20260508161521 16 329 1.6 6.4 0.00 0.00 0.00 52 1016.7
20260508160550 15 307 1.6 4.8 0.00 0.00 0.00 53 1016.6
20260508155558 15 337 1.6 6.4 0.00 0.00 0.00 53 1016.6
20260508154527 16 332 1.6 3.2 0.00 0.00 0.00 53 1016.4
20260508153535 16 341 3.2 6.4 0.00 0.00 0.00 51 1016.4
20260508152524 16 4 1.6 6.4 0.00 0.00 0.00 52 1016.4
20260508151533 16 296 3.2 6.4 0.00 0.00 0.00 52 1016.5
20260508150523 16 353 1.6 6.4 0.00 0.00 0.00 51 1016.4
20260508145531 17 336 3.2 9.7 0.00 0.00 0.00 50 1016.3
20260508144520 16 343 1.6 4.8 0.00 0.00 0.00 51 1016.3
20260508143527 16 281 3.2 11.3 0.00 0.00 0.00 52 1016.3
20260508142516 17 243 3.2 9.7 0.00 0.00 0.00 51 1016.3
20260508141524 16 343 1.6 6.4 0.00 0.00 0.00 53 1016.3
20260508140533 16 273 3.2 11.3 0.00 0.00 0.00 52 1016.3
20260508135521 16 309 3.2 9.7 0.00 0.00 0.00 52 1016.4
20260508134530 16 17 3.2 6.4 0.00 0.00 0.00 54 1016.2
20260508133518 16 213 3.2 6.4 0.00 0.00 0.00 54 1016.1
20260508132526 16 42 3.2 9.7 0.00 0.00 0.00 55 1016.2
20260508131535 16 305 3.2 6.4 0.00 0.00 0.00 54 1016.1
20260508130523 16 332 3.2 9.7 0.00 0.00 0.00 55 1016.1
20260508125532 16 334 1.6 4.8 0.00 0.00 0.00 55 1015.9
20260508124521 16 351 3.2 6.4 0.00 0.00 0.00 53 1015.9
20260508123529 15 294 3.2 6.4 0.00 0.00 0.00 55 1015.8
20260508122517 15 314 3.2 6.4 0.00 0.00 0.00 55 1015.9
20260508121526 15 317 1.6 3.2 0.00 0.00 0.00 54 1015.8
20260508120535 15 23 3.2 6.4 0.00 0.00 0.00 57 1015.8
20260508115523 15 11 3.2 6.4 0.00 0.00 0.00 57 1015.9
20260508114531 16 341 3.2 6.4 0.00 0.00 0.00 56 1015.8
20260508113519 15 320 3.2 9.7 0.00 0.00 0.00 58 1015.7
20260508112527 15 39 1.6 4.8 0.00 0.00 0.00 59 1015.7
20260508111515 15 344 3.2 6.4 0.00 0.00 0.00 61 1015.7
20260508110524 15 24 1.6 4.8 0.00 0.00 0.00 62 1015.8
20260508105552 13 325 1.6 6.4 0.00 0.00 0.00 65 1015.7
20260508104521 13 297 1.6 4.8 0.00 0.00 0.00 65 1015.7
20260508103529 13 12 1.6 6.4 0.00 0.00 0.00 63 1015.6
20260508102518 15 42 3.2 6.4 0.00 0.00 0.00 62 1015.5
20260508101527 14 325 1.6 6.4 0.00 0.00 0.00 63 1015.6
20260508100535 13 285 3.2 9.7 0.00 0.00 0.00 68 1015.4
20260508095524 12 277 3.2 4.8 0.00 0.00 0.00 69 1015.5
20260508094552 12 296 1.6 6.4 0.00 0.00 0.00 69 1015.3
20260508093519 12 71 3.2 6.4 0.00 0.00 0.00 68 1015.3
20260508092548 12 324 1.6 6.4 0.00 0.00 0.00 67 1015.3
20260508091517 13 353 1.6 9.7 0.00 0.00 0.00 67 1015.2
20260508090525 13 101 3.2 4.8 0.00 0.00 0.00 68 1015.2
20260508085534 13 332 3.2 4.8 0.00 0.00 0.00 70 1015.1
20260508084520 12 336 1.6 9.7 0.00 0.00 0.00 72 1015.1
20260508083529 12 347 1.6 3.2 0.00 0.00 0.00 73 1015.0
20260508082518 12 5 1.6 3.2 0.00 0.00 0.00 76 1015.0
20260508081526 12 358 1.6 6.4 0.00 0.00 0.00 76 1014.9
20260508080534 11 326 1.6 6.4 0.00 0.00 0.00 77 1014.7
20260508075523 11 296 1.6 4.8 0.00 0.00 0.00 80 1014.6
20260508074531 11 5 1.6 4.8 0.00 0.00 0.00 81 1014.5
20260508073520 11 310 1.6 6.4 0.00 0.00 0.00 81 1014.4
20260508072528 10 321 1.6 4.8 0.00 0.00 0.00 81 1014.3
20260508071516 10 353 1.6 9.7 0.00 0.00 0.00 82 1014.1
20260508070525 10 351 1.6 4.8 0.00 0.00 0.00 82 1014.1
20260508065533 10 290 1.6 9.7 0.00 0.00 0.00 82 1013.9
20260508064522 11 15 1.6 6.4 0.00 0.00 0.00 82 1013.8
20260508063530 10 57 1.6 4.8 0.00 0.00 0.00 85 1013.7
20260508062539 10 20 0.0 3.2 0.00 0.00 0.00 86 1013.7
20260508061548 9 0.0 0.0 0.00 0.00 0.00 88 1013.5
20260508060517 9 338 0.0 1.6 0.00 0.00 0.00 88 1013.5
20260508055526 8 357 0.0 1.6 0.00 0.00 0.00 88 1013.3
20260508054535 8 8 0.0 1.6 0.00 0.00 0.00 88 1013.1
20260508053523 8 0.0 0.0 0.00 0.00 0.00 88 1012.9
20260508052531 8 0.0 0.0 0.00 0.00 0.00 88 1012.8
20260508051519 8 344 0.0 3.2 0.00 0.00 0.00 88 1012.8
20260508050527 8 324 0.0 1.6 0.00 0.00 0.00 87 1012.8
20260508045555 8 8 0.0 1.6 0.00 0.00 0.00 87 1012.8
20260508044603 8 345 0.0 1.6 0.00 0.00 0.00 88 1012.6
20260508043550 8 0.0 0.0 0.00 0.00 0.00 88 1012.6
20260508042518 8 0.0 0.0 0.00 0.00 0.00 88 1012.6
20260508041546 8 0.0 0.0 0.00 0.00 0.00 87 1012.5
20260508040535 8 0.0 0.0 0.00 0.00 0.00 86 1012.4
20260508035523 8 324 0.0 1.6 0.00 0.00 0.00 86 1012.3
20260508034531 8 346 0.0 1.6 0.00 0.00 0.00 85 1012.4
20260508033518 8 336 1.6 3.2 0.00 0.00 0.00 84 1012.3
20260508032527 9 327 1.6 3.2 0.00 0.00 0.00 83 1012.3
20260508031535 9 333 1.6 3.2 0.00 0.00 0.00 82 1012.3
20260508030523 9 5 1.6 4.8 0.00 0.00 0.00 82 1012.3
20260508025531 9 353 1.6 3.2 0.00 0.00 0.00 81 1012.2
20260508024519 9 159 1.6 6.4 0.00 0.00 0.00 80 1012.1
20260508023528 9 300 1.6 9.7 0.00 0.00 0.00 80 1012.1
20260508022516 9 295 1.6 3.2 0.00 0.00 0.00 79 1012.1
20260508021524 9 271 3.2 11.3 0.00 0.00 0.00 79 1012.0
20260508020532 9 244 1.6 4.8 0.00 0.00 0.00 78 1012.0
20260508015520 9 324 1.6 4.8 0.00 0.00 0.00 78 1012.0
20260508014528 9 325 3.2 4.8 0.00 0.00 0.00 77 1012.0
20260508013536 9 282 1.6 4.8 0.00 0.00 0.00 78 1012.2
20260508012524 8 326 0.0 3.2 0.00 0.00 0.00 81 1012.1
20260508011533 8 6 0.0 1.6 0.00 0.00 0.00 81 1012.0
20260508010521 9 6 1.6 4.8 0.00 0.00 0.00 81 1012.0
20260508005529 8 9 0.0 3.2 0.00 0.00 0.00 80 1012.1
20260508004518 9 0.0 0.0 0.00 0.00 0.00 80 1012.0
20260508003527 9 304 1.6 3.2 0.00 0.00 0.00 80 1012.1
20260508002536 8 298 1.6 4.8 0.00 0.00 0.00 80 1012.1
20260508001523 9 356 0.0 1.6 0.00 0.00 0.00 81 1012.2
20260508000531 8 33 0.0 1.6 0.00 0.00 0.00 81 1012.1
20260507235519 9 329 0.0 1.6 0.00 0.00 0.00 81 1012.1
20260507234548 9 319 0.0 1.6 0.00 0.00 0.00 81 1012.0
20260507233536 9 264 1.6 6.4 0.00 0.00 0.00 81 1012.1
20260507232544 9 311 1.6 3.2 0.00 0.00 0.00 82 1012.1
20260507231532 8 317 0.0 1.6 0.00 0.00 0.00 83 1012.1
20260507230520 8 333 0.0 1.6 0.00 0.00 0.00 83 1012.1
20260507225528 8 0.0 0.0 0.00 0.00 0.00 83 1012.1
20260507224517 8 319 0.0 3.2 0.00 0.00 0.00 83 1012.1
20260507223526 9 339 0.0 1.6 0.00 0.00 0.00 82 1012.1
20260507222534 9 11 0.0 3.2 0.00 0.00 0.00 82 1012.0
20260507221522 8 0.0 0.0 0.00 0.00 0.00 83 1012.0
20260507220531 8 322 0.0 3.2 0.00 0.00 0.00 83 1012.0
20260507215519 8 0.0 0.0 0.00 0.00 0.00 83 1012.1
20260507214548 9 0.0 0.0 0.00 0.00 0.00 82 1012.0
20260507213516 9 333 0.0 3.2 0.00 0.00 0.00 82 1012.0
20260507212525 9 329 0.0 1.6 0.00 0.00 0.00 81 1012.1
20260507211533 9 335 0.0 3.2 0.00 0.00 0.00 80 1012.0
20260507210522 10 0.0 0.0 0.00 0.00 0.00 78 1012.1
20260507205530 10 345 0.0 3.2 0.00 0.00 0.00 76 1012.0
20260507204518 11 263 1.6 9.7 0.00 0.00 0.00 75 1011.9
20260507203546 11 22 0.0 1.6 0.00 0.00 0.00 74 1011.9
20260507202535 11 281 1.6 4.8 0.00 0.00 0.00 73 1011.7
20260507201524 11 284 3.2 11.3 0.00 0.00 0.00 73 1011.7
20260507200553 11 252 3.2 11.3 0.00 0.00 0.00 72 1011.5
20260507195601 11 263 3.2 9.7 0.00 0.00 0.00 72 1011.5
20260507194530 11 214 3.2 6.4 0.00 0.00 0.00 72 1011.5
20260507193518 11 264 3.2 6.4 0.00 0.00 0.00 71 1011.5
20260507192527 11 298 3.2 6.4 0.00 0.00 0.00 71 1011.3
20260507191535 12 286 1.6 6.4 0.00 0.00 0.00 71 1011.3
20260507190522 12 302 3.2 6.4 0.00 0.00 0.00 70 1011.3
20260507185530 12 297 1.6 6.4 0.00 0.00 0.00 71 1011.2
20260507184538 11 282 1.6 4.8 0.00 0.00 0.00 72 1011.1
20260507183527 11 276 1.6 4.8 0.00 0.00 0.00 75 1011.2
20260507182535 11 313 0.0 1.6 0.00 0.00 0.00 75 1011.2
20260507181524 11 322 0.0 1.6 0.00 0.00 0.00 74 1011.2
20260507180533 11 301 0.0 1.6 0.00 0.00 0.00 73 1011.2
20260507175522 11 324 0.0 1.6 0.00 0.00 0.00 73 1011.3
20260507174532 12 325 0.0 1.6 0.00 0.00 0.00 74 1011.2
20260507173520 12 233 0.0 3.2 0.00 0.00 0.00 76 1011.3
20260507172529 12 0.0 0.0 0.00 0.00 0.00 76 1011.2
20260507171517 11 0.0 0.0 0.00 0.00 0.00 78 1011.4
20260507170526 10 0.0 0.0 0.00 0.00 0.00 80 1011.3
20260507165535 10 331 0.0 1.6 0.00 0.00 0.00 82 1011.4
20260507164523 10 0.0 0.0 0.00 0.00 0.00 82 1011.5